Tracking 35275 objects as of 8-Sep-2026
HD Live streaming from Space Station
objects crossing your sky now

STARLINK-3805

Track STARLINK-3805 now!
10-day predictions
STARLINK-3805 is classified as:


NORAD ID: 52377
Int'l Code: 2022-045AY
Launch date: April 29, 2022
Source: United States (US)
Launch site: AIR FORCE EASTERN TEST RANGE (AFETR)
Your satellite tracking list
Your tracking list is empty




NASA's NSSDC Master Catalog

Two Line Element Set (TLE):
1 52377U 22045AY  26250.77796574  .00000732  00000-0  32791-4 0  9992
2 52377  53.1598  84.8452 0001142  90.1207 269.9926 15.34390884243495
Source of the keplerian elements: AFSPC